Time,TemperatureF,DewpointF,PressureIn,WindDirection,WindDirectionDegrees,WindSpeedMPH,WindSpeedGustMPH,Humidity,HourlyPrecipIn,Conditions,Clouds,dailyrainin,SolarRadiationWatts/m^2,SoftwareType,DateUTC
2013-10-22 06:40:00,69.0,21.0,30.04,East,87,4.0,6.0,16,-99.99,,,-99.99,0.000000,,2013-10-22 13:40:00,
2013-10-22 07:21:00,69.0,21.0,30.04,East,87,4.0,6.0,16,-99.99,,,-99.99,0.000000,,2013-10-22 14:21:00,
2013-10-22 07:32:00,69.0,21.0,30.04,East,87,4.0,6.0,16,-99.99,,,-99.99,0.000000,,2013-10-22 14:32:00,
2013-10-22 07:40:00,69.0,21.0,30.05,WNW,293,1.0,1.0,16,-99.99,,,-99.99,12.000000,,2013-10-22 14:40:00,
2013-10-22 08:22:00,69.0,21.0,30.05,WNW,293,1.0,1.0,16,-99.99,,,-99.99,12.000000,,2013-10-22 15:22:00,
2013-10-22 08:33:00,69.0,21.0,30.05,WNW,293,1.0,1.0,16,-99.99,,,-99.99,12.000000,,2013-10-22 15:33:00,
2013-10-22 08:40:00,71.0,23.0,30.06,West,270,0.0,1.0,16,-99.99,,,-99.99,260.000000,,2013-10-22 15:40:00,
2013-10-22 09:23:00,71.0,23.0,30.06,West,270,0.0,1.0,16,-99.99,,,-99.99,260.000000,,2013-10-22 16:23:00,
2013-10-22 09:33:00,71.0,23.0,30.06,West,270,0.0,1.0,16,-99.99,,,-99.99,260.000000,,2013-10-22 16:33:00,
2013-10-22 09:40:00,72.0,23.0,30.07,WSW,258,1.0,2.0,16,-99.99,,,-99.99,461.000000,,2013-10-22 16:40:00,
2013-10-22 10:22:00,72.0,23.0,30.07,WSW,258,1.0,2.0,16,-99.99,,,-99.99,461.000000,,2013-10-22 17:22:00,
2013-10-22 10:34:00,72.0,23.0,30.07,WSW,258,1.0,2.0,16,-99.99,,,-99.99,461.000000,,2013-10-22 17:34:00,
2013-10-22 10:40:00,73.0,24.0,30.07,West,275,3.0,4.0,16,-99.99,,,-99.99,627.000000,,2013-10-22 17:40:00,
2013-10-22 11:22:00,73.0,24.0,30.07,West,275,3.0,4.0,16,-99.99,,,-99.99,627.000000,,2013-10-22 18:22:00,
2013-10-22 11:32:00,73.0,24.0,30.07,West,275,3.0,4.0,16,-99.99,,,-99.99,627.000000,,2013-10-22 18:32:00,
2013-10-22 11:40:00,73.0,26.0,30.06,West,281,3.0,4.0,17,-99.99,,,-99.99,732.000000,,2013-10-22 18:40:00,
2013-10-22 12:22:00,73.0,26.0,30.06,West,281,3.0,4.0,17,-99.99,,,-99.99,732.000000,,2013-10-22 19:22:00,
2013-10-22 12:32:00,73.0,26.0,30.06,West,281,3.0,4.0,17,-99.99,,,-99.99,732.000000,,2013-10-22 19:32:00,
2013-10-22 12:40:00,73.0,24.0,30.05,West,279,4.0,6.0,16,-99.99,,,-99.99,776.000000,,2013-10-22 19:40:00,
2013-10-22 13:22:00,73.0,24.0,30.05,West,279,4.0,6.0,16,-99.99,,,-99.99,776.000000,,2013-10-22 20:22:00,
2013-10-22 13:32:00,73.0,24.0,30.05,West,279,4.0,6.0,16,-99.99,,,-99.99,776.000000,,2013-10-22 20:32:00,
2013-10-22 13:40:00,71.0,28.0,30.04,West,279,4.0,7.0,20,-99.99,,,-99.99,758.000000,,2013-10-22 20:40:00,
2013-10-22 14:23:00,71.0,28.0,30.04,West,279,4.0,7.0,20,-99.99,,,-99.99,758.000000,,2013-10-22 21:23:00,
2013-10-22 14:34:00,71.0,28.0,30.04,West,279,4.0,7.0,20,-99.99,,,-99.99,758.000000,,2013-10-22 21:34:00,
2013-10-22 14:40:00,73.0,30.0,30.02,West,279,4.0,6.0,20,-99.99,,,-99.99,661.000000,,2013-10-22 21:40:00,
2013-10-22 15:24:00,73.0,30.0,30.02,West,279,4.0,6.0,20,-99.99,,,-99.99,661.000000,,2013-10-22 22:24:00,
2013-10-22 15:33:00,73.0,30.0,30.02,West,279,4.0,6.0,20,-99.99,,,-99.99,661.000000,,2013-10-22 22:33:00,
2013-10-22 15:40:00,74.0,31.0,30.02,West,274,3.0,5.0,20,-99.99,,,-99.99,530.000000,,2013-10-22 22:40:00,
2013-10-22 16:23:00,74.0,31.0,30.02,West,274,3.0,5.0,20,-99.99,,,-99.99,530.000000,,2013-10-22 23:23:00,
2013-10-22 16:34:00,74.0,31.0,30.02,West,274,3.0,5.0,20,-99.99,,,-99.99,530.000000,,2013-10-22 23:34:00,
2013-10-22 16:40:00,74.0,31.0,30.02,WNW,282,3.0,4.0,21,-99.99,,,-99.99,359.000000,,2013-10-22 23:40:00,
2013-10-22 18:23:00,73.0,30.0,30.01,NW,305,1.0,2.0,20,-99.99,,,-99.99,151.000000,,2013-10-23 01:23:00,
2013-10-22 18:32:00,73.0,30.0,30.01,NW,305,1.0,2.0,20,-99.99,,,-99.99,151.000000,,2013-10-23 01:32:00,